map of GYN home
GYN - Airport
Location
City:  Goiânia, Goiás, Brazil
Name:Santa Genoveva Airport
ICAO:SBGO
IATA:GYN

Details
Type:Airport (Aerodrome, Airfield)
Use:Public/Civil
Latitude:16°37'55"S (-16.632032)
Longitude:49°13'14"W (-49.220685)
Datum:WGS 1984
Elevation:2450 ft (747 m)
Variation:21.04°W (WMM2015 magnetic declination)
-0.11° annual change
Runways:1
Longest:8204 × 148 ft (2501 × 45 m), paved

Time
Time Zone:UTC-3 (DST-2)
Local Time:

Weather
METAR:SBGO 240700Z 00000KT CAVOK 15/13 Q1021
TAF:SBGO 240400Z 2406/2506 12004KT CAVOK TN16/2408Z TX30/2417Z
BECMG 2412/2413 15007KT
BECMG 2419/2421 12004KT
BECMG 2424/2501 14003KT
RMK PEJ

Related Locations
Nearby:
Farthest:VRC: 11959 mi / 19246 km
Virac [Virac Airport], Catanduanes Island, PH

Find:

   beyond  
but within

Other Information
Maps:
NOTAMs:
Links:
Sources:

  
flag of Brazil
flag of Goiás
flag of Goiânia
  

Sectional Chart

Flight Planning
at skyvector.com

Satellite Image

Google Maps Satellite view

 

Copyright © 2004-2018 Karl L. Swartz. All rights reserved.
The Great Circle Mapper name and logo are trademarks of the Great Circle Mapper.
All other trademarks mentioned herein belong to their respective owners.
Please see credits for attibutions and further copyright information.

  Follow gcmap on Facebook Follow gcmap on Twitter Follow gcmap on Google+ GCmap on LinkedIn

hCard Microformat

Geo Microformat